Simultaneous Nadir Overpasses (SNOs) Predictions

Prediction of SNOs between GOES-16 and LANDSAT-8 Satellite Orbit:

Table of predicted SNOs for the next 14.0 days since TLE Epoch: 7/23/2022
Index Date Time (GOES-16) GOES-16 Lat,Lon LANDSAT-8 Lat,Lon Distance(km) Time Diff (sec)
1 07/23/2022 03:12:37 0.01, -75.19 0.12, -74.68 58.14 80
2 07/25/2022 03:00:27 -0.00, -75.20 0.73, -71.73 394.81 80
3 07/25/2022 15:19:02 0.01, -75.21 0.36, -76.88 189.79 80
4 07/27/2022 15:06:52 0.01, -75.22 -0.25, -73.93 147.16 80
5 07/28/2022 03:30:57 -0.01, -75.21 -0.84, -79.12 444.37 80
6 07/29/2022 14:54:44 0.00, -75.24 -0.92, -70.98 484.39 80
7 07/30/2022 03:18:47 -0.00, -75.23 -0.23, -76.17 106.95 80
8 08/01/2022 03:03:58 0.01, -75.26 0.44, -73.22 231.25 80
9 08/01/2022 15:27:54 -0.01, -75.28 0.65, -78.38 352.99 80
10 08/03/2022 15:15:44 -0.01, -75.31 0.04, -75.43 14.40 80
11 08/05/2022 15:00:55 -0.00, -75.34 -0.62, -72.48 325.28 80
